TimeCST,TemperatureF,Dew PointF,Humidity,Sea Level PressureIn,VisibilityMPH,Wind Direction,Wind SpeedMPH,Gust SpeedMPH,PrecipitationIn,Events,Conditions,WindDirDegrees,DateUTC
12:54 AM,21.0,15.1,78,30.36,10.0,Calm,Calm,-,N/A,,Clear,0,2012-12-21 06:54:00
1:54 AM,17.1,12.9,84,30.36,10.0,Calm,Calm,-,N/A,,Clear,0,2012-12-21 07:54:00
2:54 AM,21.0,14.0,74,30.37,10.0,SSE,3.5,-,N/A,,Clear,160,2012-12-21 08:54:00
3:54 AM,19.9,12.9,74,30.36,10.0,SSW,4.6,-,N/A,,Clear,200,2012-12-21 09:54:00
4:54 AM,21.0,14.0,74,30.35,10.0,Calm,Calm,-,N/A,,Clear,0,2012-12-21 10:54:00
5:54 AM,19.9,14.0,78,30.35,10.0,Calm,Calm,-,N/A,,Clear,0,2012-12-21 11:54:00
6:54 AM,19.9,14.0,78,30.36,10.0,Calm,Calm,-,N/A,,Clear,0,2012-12-21 12:54:00
7:54 AM,21.0,14.0,74,30.36,10.0,East,5.8,-,N/A,,Clear,90,2012-12-21 13:54:00
8:54 AM,26.1,17.1,69,30.37,10.0,East,3.5,-,N/A,,Clear,100,2012-12-21 14:54:00
9:54 AM,33.1,19.9,59,30.39,10.0,South,3.5,-,N/A,,Clear,190,2012-12-21 15:54:00
10:54 AM,42.1,21.0,43,30.36,10.0,SSE,6.9,-,N/A,,Clear,150,2012-12-21 16:54:00
11:54 AM,48.0,21.0,34,30.33,10.0,SE,5.8,-,N/A,,Clear,140,2012-12-21 17:54:00
12:54 PM,53.1,16.0,23,30.28,10.0,South,10.4,-,N/A,,Clear,170,2012-12-21 18:54:00
1:54 PM,55.0,15.1,21,30.26,10.0,South,6.9,-,N/A,,Clear,180,2012-12-21 19:54:00
2:54 PM,55.9,15.1,20,30.24,10.0,South,9.2,-,N/A,,Clear,190,2012-12-21 20:54:00
3:54 PM,55.0,17.1,23,30.24,10.0,South,3.5,-,N/A,,Clear,180,2012-12-21 21:54:00
4:54 PM,52.0,18.0,26,30.24,10.0,SE,3.5,-,N/A,,Clear,140,2012-12-21 22:54:00
5:54 PM,48.0,17.1,29,30.24,10.0,East,3.5,-,N/A,,Clear,100,2012-12-21 23:54:00
6:54 PM,44.1,19.0,37,30.26,10.0,ESE,5.8,-,N/A,,Clear,110,2012-12-22 00:54:00
7:54 PM,41.0,19.0,41,30.26,10.0,ESE,5.8,-,N/A,,Clear,120,2012-12-22 01:54:00
8:54 PM,39.0,19.0,45,30.25,10.0,ESE,5.8,-,N/A,,Clear,110,2012-12-22 02:54:00
9:54 PM,36.0,19.0,50,30.23,10.0,East,5.8,-,N/A,,Clear,100,2012-12-22 03:54:00
10:54 PM,37.9,19.0,47,30.23,10.0,ESE,5.8,-,N/A,,Clear,110,2012-12-22 04:54:00
11:54 PM,36.0,19.0,50,30.20,10.0,ESE,5.8,-,N/A,,Clear,120,2012-12-22 05:54:00